| time (UTC) | temp C | wind direction | speed KPH | gust KPH | rain 1hr cm | rain 24hr cm | rain mn cm | humidity % | barometer mb |
| 20260507040344 | 8 | 140 | 8.0 | 0.0 | 0.00 | 0.00 | 0.00 | 100 | 1018.0 |
| 20260507034841 | 7 | 160 | 4.8 | 0.0 | 0.00 | 0.00 | 0.00 | 100 | 1017.0 |
| 20260507033344 | 7 | 160 | 4.8 | 0.0 | 0.00 | 0.00 | 0.00 | 100 | 1017.0 |
| 20260507030344 | 6 | 1.6 | 0.0 | 0.00 | 0.00 | 0.00 | 100 | 1017.0 | |
| 20260507024841 | 6 | 3.2 | 0.0 | 0.00 | 0.00 | 0.00 | 100 | 1017.0 | |
| 20260507023344 | 6 | 3.2 | 0.0 | 0.00 | 0.00 | 0.00 | 100 | 1017.0 | |
| 20260507021845 | 6 | 220 | 3.2 | 0.0 | 0.00 | 0.00 | 0.00 | 100 | 1017.0 |
| 20260507020344 | 6 | 220 | 3.2 | 0.0 | 0.00 | 0.00 | 0.00 | 100 | 1017.0 |
| 20260507014844 | 5 | 160 | 4.8 | 0.0 | 0.00 | 0.00 | 0.00 | 100 | 1017.0 |
| 20260507013344 | 5 | 160 | 4.8 | 0.0 | 0.00 | 0.00 | 0.00 | 100 | 1017.0 |
| 20260507011844 | 3 | 3.2 | 0.0 | 0.00 | 0.00 | 0.00 | 100 | 1017.0 | |
| 20260507010345 | 3 | 3.2 | 0.0 | 0.00 | 0.00 | 0.00 | 100 | 1017.0 | |
| 20260507004844 | 6 | 3.2 | 0.0 | 0.00 | 0.00 | 0.00 | 100 | 1017.0 | |
| 20260507003345 | 6 | 3.2 | 0.0 | 0.00 | 0.00 | 0.00 | 100 | 1017.0 | |
| 20260507001844 | 6 | 3.2 | 0.0 | 0.00 | 0.00 | 0.00 | 100 | 1017.0 | |
| 20260507000344 | 6 | 3.2 | 0.0 | 0.00 | 0.00 | 0.00 | 100 | 1017.0 | |
| 20260506234844 | 7 | 3.2 | 0.0 | 0.00 | 0.00 | 0.00 | 100 | 1017.0 | |
| 20260506233344 | 7 | 3.2 | 0.0 | 0.00 | 0.00 | 0.00 | 100 | 1017.0 | |
| 20260506230344 | 7 | 120 | 4.8 | 0.0 | 0.00 | 0.00 | 0.00 | 100 | 1017.0 |
| 20260506224841 | 6 | 110 | 1.6 | 0.0 | 0.00 | 0.00 | 0.00 | 100 | 1017.0 |
| 20260506223344 | 6 | 110 | 1.6 | 0.0 | 0.00 | 0.00 | 0.00 | 100 | 1017.0 |
| 20260506221844 | 7 | 200 | 4.8 | 0.0 | 0.00 | 0.00 | 0.00 | 100 | 1017.0 |
| 20260506220343 | 7 | 200 | 4.8 | 0.0 | 0.00 | 0.00 | 0.00 | 100 | 1017.0 |
| 20260506213344 | 7 | 220 | 4.8 | 0.0 | 0.00 | 0.00 | 0.00 | 100 | 1017.0 |
| 20260506210344 | 7 | 150 | 9.7 | 0.0 | 0.00 | 0.00 | 0.00 | 100 | 1017.0 |
| 20260506204845 | 8 | 130 | 9.7 | 0.0 | 0.00 | 0.00 | 0.00 | 94 | 1017.0 |
| 20260506203344 | 8 | 130 | 9.7 | 0.0 | 0.00 | 0.00 | 0.00 | 94 | 1017.0 |
| 20260506200344 | 8 | 140 | 9.7 | 0.0 | 0.00 | 0.00 | 0.00 | 100 | 1017.0 |
| 20260506193408 | 8 | 130 | 9.7 | 0.0 | 0.00 | 0.00 | 0.00 | 100 | 1017.0 |
| 20260506191845 | 8 | 150 | 12.9 | 0.0 | 0.00 | 0.00 | 0.00 | 100 | 1017.0 |
| 20260506190344 | 8 | 150 | 12.9 | 0.0 | 0.00 | 0.00 | 0.00 | 100 | 1017.0 |
| 20260506183344 | 10 | 140 | 9.7 | 0.0 | 0.00 | 0.00 | 0.00 | 94 | 1017.0 |
| 20260506181844 | 11 | 140 | 11.3 | 0.0 | 0.00 | 0.00 | 0.00 | 88 | 1016.0 |
| 20260506180345 | 11 | 140 | 11.3 | 0.0 | 0.00 | 0.00 | 0.00 | 88 | 1016.0 |
| 20260506174845 | 11 | 130 | 11.3 | 0.0 | 0.00 | 0.00 | 0.00 | 88 | 1016.0 |
| 20260506173344 | 11 | 130 | 11.3 | 0.0 | 0.00 | 0.00 | 0.00 | 88 | 1016.0 |
| 20260506171845 | 13 | 150 | 12.9 | 0.0 | 0.00 | 0.00 | 0.00 | 77 | 1016.0 |
| 20260506170344 | 13 | 150 | 12.9 | 0.0 | 0.00 | 0.00 | 0.00 | 77 | 1016.0 |
| 20260506164844 | 16 | 140 | 11.3 | 0.0 | 0.00 | 0.00 | 0.00 | 68 | 1016.0 |
| 20260506163344 | 16 | 140 | 11.3 | 0.0 | 0.00 | 0.00 | 0.00 | 68 | 1016.0 |
| 20260506161845 | 17 | 140 | 14.5 | 0.0 | 0.00 | 0.00 | 0.00 | 59 | 1016.0 |
| 20260506160344 | 17 | 140 | 14.5 | 0.0 | 0.00 | 0.00 | 0.00 | 59 | 1016.0 |
| 20260506154845 | 17 | 140 | 16.1 | 0.0 | 0.00 | 0.00 | 0.00 | 52 | 1016.0 |
| 20260506153344 | 17 | 140 | 16.1 | 0.0 | 0.00 | 0.00 | 0.00 | 52 | 1016.0 |
| 20260506151844 | 18 | 150 | 17.7 | 0.0 | 0.00 | 0.00 | 0.00 | 49 | 1016.0 |
| 20260506150350 | 18 | 150 | 17.7 | 0.0 | 0.00 | 0.00 | 0.00 | 49 | 1016.0 |
| 20260506144844 | 18 | 160 | 22.5 | 0.0 | 0.00 | 0.00 | 0.00 | 49 | 1016.0 |
| 20260506143356 | 18 | 160 | 22.5 | 0.0 | 0.00 | 0.00 | 0.00 | 49 | 1016.0 |
| 20260506141844 | 18 | 150 | 20.9 | 0.0 | 0.00 | 0.00 | 0.00 | 52 | 1016.0 |
| 20260506140505 | 18 | 150 | 20.9 | 0.0 | 0.00 | 0.00 | 0.00 | 52 | 1016.0 |
| 20260506134909 | 20 | 150 | 22.5 | 0.0 | 0.00 | 0.00 | 0.00 | 46 | 1016.0 |
| 20260506133344 | 20 | 150 | 22.5 | 0.0 | 0.00 | 0.00 | 0.00 | 46 | 1016.0 |
| 20260506131844 | 20 | 150 | 20.9 | 0.0 | 0.00 | 0.00 | 0.00 | 43 | 1016.0 |
| 20260506130353 | 20 | 150 | 20.9 | 0.0 | 0.00 | 0.00 | 0.00 | 43 | 1016.0 |
| 20260506124845 | 20 | 140 | 20.9 | 0.0 | 0.00 | 0.00 | 0.00 | 40 | 1016.0 |
| 20260506123344 | 20 | 140 | 20.9 | 0.0 | 0.00 | 0.00 | 0.00 | 40 | 1016.0 |
| 20260506121845 | 20 | 150 | 20.9 | 0.0 | 0.00 | 0.00 | 0.00 | 43 | 1016.0 |
| 20260506120344 | 20 | 150 | 20.9 | 0.0 | 0.00 | 0.00 | 0.00 | 43 | 1016.0 |
| 20260506114844 | 20 | 140 | 20.9 | 0.0 | 0.00 | 0.00 | 0.00 | 46 | 1016.0 |
| 20260506113345 | 20 | 140 | 20.9 | 0.0 | 0.00 | 0.00 | 0.00 | 46 | 1016.0 |
| 20260506111844 | 20 | 160 | 20.9 | 0.0 | 0.00 | 0.00 | 0.00 | 46 | 1017.0 |
| 20260506110344 | 20 | 160 | 20.9 | 0.0 | 0.00 | 0.00 | 0.00 | 46 | 1017.0 |
| 20260506104844 | 20 | 160 | 20.9 | 0.0 | 0.00 | 0.00 | 0.00 | 46 | 1017.0 |
| 20260506103344 | 20 | 160 | 20.9 | 0.0 | 0.00 | 0.00 | 0.00 | 46 | 1017.0 |
| 20260506101845 | 20 | 150 | 17.7 | 0.0 | 0.00 | 0.00 | 0.00 | 46 | 1016.0 |
| 20260506100344 | 20 | 150 | 17.7 | 0.0 | 0.00 | 0.00 | 0.00 | 46 | 1016.0 |
| 20260506094844 | 20 | 150 | 17.7 | 0.0 | 0.00 | 0.00 | 0.00 | 43 | 1017.0 |
| 20260506093344 | 20 | 150 | 17.7 | 0.0 | 0.00 | 0.00 | 0.00 | 43 | 1017.0 |
| 20260506091844 | 18 | 140 | 22.5 | 0.0 | 0.00 | 0.00 | 0.00 | 46 | 1016.0 |
| 20260506090344 | 18 | 140 | 22.5 | 0.0 | 0.00 | 0.00 | 0.00 | 46 | 1016.0 |
| 20260506084844 | 20 | 140 | 17.7 | 0.0 | 0.00 | 0.00 | 0.00 | 43 | 1016.0 |
| 20260506083344 | 20 | 140 | 17.7 | 0.0 | 0.00 | 0.00 | 0.00 | 43 | 1016.0 |
| 20260506081841 | 18 | 130 | 16.1 | 0.0 | 0.00 | 0.00 | 0.00 | 52 | 1016.0 |
| 20260506080344 | 18 | 130 | 16.1 | 0.0 | 0.00 | 0.00 | 0.00 | 52 | 1016.0 |
| 20260506073344 | 18 | 160 | 11.3 | 0.0 | 0.00 | 0.00 | 0.00 | 46 | 1016.0 |
| 20260506071844 | 17 | 150 | 9.7 | 0.0 | 0.00 | 0.00 | 0.00 | 43 | 1016.0 |
| 20260506070344 | 17 | 150 | 9.7 | 0.0 | 0.00 | 0.00 | 0.00 | 43 | 1016.0 |
| 20260506061845 | 12 | 3.2 | 0.0 | 0.00 | 0.00 | 0.00 | 67 | 1016.0 | |
| 20260506060346 | 12 | 3.2 | 0.0 | 0.00 | 0.00 | 0.00 | 67 | 1016.0 | |
| 20260506050358 | 8 | 50 | 3.2 | 0.0 | 0.00 | 0.00 | 0.00 | 76 | 1016.0 |
| 20260506044900 | 8 | 1.6 | 0.0 | 0.00 | 0.00 | 0.00 | 71 | 1015.0 | |
| 20260506043348 | 8 | 1.6 | 0.0 | 0.00 | 0.00 | 0.00 | 71 | 1015.0 | |
| 20260506041845 | 6 | 10 | 4.8 | 0.0 | 0.00 | 0.00 | 0.00 | 87 | 1015.0 |